Home   Weather   Kemi   Past weeks

Flag for Finland Past Weather in Kemi, Finland — Yesterday and Last 2 Weeks

Now
46 °F

Overcast.


Feels Like: 39 °F
Forecast: 44 / 51 °F
Wind: 18 mph from Southwest

Location: Kemi Airport

Current Time: Sep 30, 2016 at 11:34:07 AM

Latest Report: Sep 30, 2016 at 10:50 AM


Visibility: N/A

Pressure: 28.68 "Hg

Humidity: 82%

Dew Point: 41 °F

Location of KemiLocation

Past Weather in Kemi — Graph

°F

Kemi Temperature Yesterday

Maximum temperature yesterday: 54 °F (at 11:20 AM)
Minimum temperature yesterday: 48 °F (at 8:50 PM)
Average temperature yesterday: 52 °F

High & Low Weather Summary for the Past Weeks

 TemperatureHumidityPressure
High59 °F (Sep 15, 1:50 PM)100% (Sep 16, 12:50 AM)30.33 "Hg (Sep 16, 12:50 AM)
Low27 °F (Sep 17, 5:50 AM)54% (Sep 16, 1:50 PM)28.59 "Hg (Sep 30, 4:50 AM)
Average48 °F88%30.02 "Hg
* Reported Sep 15 10:20 AM — Sep 30 10:20 AM, Kemi, Weather by CustomWeather, © 2016

Note: Actual official high and low records may vary slightly from our data, if they occured in-between our weather recording intervals... More about our weather records

Advertising

Kemi Weather History for the Previous 24 Hours

Scroll right to see more
 ConditionsComfort  
Time TempWeatherWind HumidityBarometerVisibility
10:20 AM
Fri, Sep 30
46 °FPartly sunny.20 mph82%28.65 "HgN/A
9:50 AM46 °FOvercast.21 mph82%28.65 "HgN/A
9:20 AM46 °FDrizzle. Overcast.17 mph87%28.62 "HgN/A
8:50 AM46 °FLight rain. Overcast.18 mph87%28.62 "HgN/A
8:20 AM46 °FLight rain. Overcast.20 mph87%28.62 "HgN/A
7:50 AM48 °FOvercast.18 mph82%28.62 "HgN/A
7:20 AM48 °FOvercast.21 mph82%28.59 "HgN/A
6:50 AM48 °FOvercast.22 mph82%28.59 "HgN/A
6:20 AM48 °FSprinkles. Overcast.23 mph82%28.59 "HgN/A
5:50 AM48 °FOvercast.23 mph87%28.59 "HgN/A
5:20 AM48 °FLight rain. Overcast.23 mph87%28.59 "HgN/A
4:50 AM48 °FLight rain. Overcast.18 mph87%28.59 "HgN/A
4:20 AM48 °FPassing clouds.21 mph87%28.62 "HgN/A
3:50 AM50 °FMostly cloudy.21 mph82%28.62 "HgN/A
3:20 AM50 °FSprinkles. Overcast.23 mph82%28.62 "HgN/A
2:50 AM52 °FPassing clouds.23 mph82%28.65 "HgN/A
2:20 AM52 °FOvercast.24 mph82%28.65 "HgN/A
1:50 AM52 °FPassing clouds.23 mph88%28.68 "HgN/A
1:20 AM52 °FRain showers. Mostly cloudy.22 mph94%28.68 "Hg1 mi
12:50 AM52 °FRain showers. Overcast.23 mph94%28.68 "Hg4 mi
12:20 AM52 °FOvercast.24 mph94%28.71 "HgN/A
11:50 PM
Thu, Sep 29
52 °FOvercast.22 mph94%28.74 "HgN/A
11:20 PM50 °FOvercast.21 mph94%28.77 "HgN/A
10:50 PM48 °FLight rain. Low clouds.18 mph100%28.80 "Hg5 mi
10:20 PM48 °FLight rain. Low clouds.22 mph94%28.82 "Hg5 mi
9:50 PM48 °FRain. Mostly cloudy.18 mph94%28.88 "Hg2 mi
9:20 PM48 °FLight rain. Overcast.15 mph94%28.94 "HgN/A
8:50 PM48 °FLight rain. Mostly cloudy.13 mph94%28.97 "HgN/A
8:20 PM50 °FRain. Overcast.14 mph94%29.03 "HgN/A
7:50 PM50 °FLight rain. Overcast.13 mph94%29.06 "HgN/A
7:20 PM50 °FRain. Passing clouds.13 mph94%29.12 "HgN/A
6:50 PM52 °FPartly sunny.13 mph88%29.15 "HgN/A
6:20 PM52 °FPartly sunny.8 mph88%29.15 "HgN/A
5:50 PM52 °FPartly sunny.5 mph88%29.18 "HgN/A
5:20 PM52 °FPassing clouds.7 mph82%29.18 "HgN/A
4:50 PM52 °FPartly sunny.12 mph82%29.24 "HgN/A
4:20 PM52 °FPartly sunny.16 mph82%29.27 "HgN/A
3:50 PM52 °FPartly sunny.17 mph82%29.27 "HgN/A
3:20 PM52 °FPartly sunny.15 mph82%29.30 "HgN/A
2:50 PM54 °FPartly sunny.17 mph77%29.30 "HgN/A
2:20 PM54 °FPartly sunny.18 mph77%29.33 "HgN/A
1:50 PM54 °FPartly sunny.17 mph82%29.33 "HgN/A
1:20 PM54 °FPartly sunny.16 mph82%29.33 "HgN/A
12:50 PM54 °FPartly sunny.16 mph82%29.36 "HgN/A
12:20 PM54 °FPartly sunny.15 mph82%29.36 "HgN/A
11:50 AM54 °FPartly sunny.17 mph82%29.36 "HgN/A
11:20 AM54 °FPartly sunny.16 mph88%29.36 "HgN/A
Weather by CustomWeather, © 2016

See weather overviewHow to use our weather pages